User: anonymous   Login
Location: Unspecified
(0.0000°N, 0.0000°E)
Time: 10:34:51
(UTC+00:00)
Language:

NOSS 3-2 (A) - Orbit

View from above orbital plane
View from above orbital plane
View from above satellite
View from above satellite

Ground track
Ground track

The orbit data is extracted from the following two-line orbital elements,

1 28095U 03054A   18230.01749304 0.00000000  00000-0  00000-0 0    01
2 28095  63.4186 302.1648 0341000 358.4914   1.5086 13.41364356    06
Epoch (UTC): 18 August 2018 00:25:11
Eccentricity: 0.0341000
inclination: 63.4186°
perigee height: 849 km
apogee height: 1359 km
right ascension of ascending node: 302.1648°
argument of perigee: 358.4914°
revolutions per day: 13.41364356
mean anomaly at epoch: 1.5086°
orbit number at epoch: 0

The dashed part of the orbit path shows where the satellite is in the earth's shadow,  

DLR